Home   Weather   Ashdod   Past weeks

Flag for Israel Past Weather in Ashdod, Israel — Yesterday and Last 2 Weeks

Now
70 °F

Sunny.


Feels Like: 70 °F
Forecast: 62 / 69 °F
Wind: 8 mph from Southeast

Location: Ben Gurion International Airport

Current Time: Dec 4, 2016 at 2:11:37 pm

Latest Report: Dec 4, 2016 at 1:20 pm


Visibility: 10 mi

Pressure: 30.15 "Hg

Humidity: 35%

Dew Point: 41 °F

Location of AshdodLocation

Past Weather in Ashdod — Graph

°F

Ashdod Temperature Yesterday

Maximum temperature yesterday: 66 °F (at 2:20 pm)
Minimum temperature yesterday: 54 °F (at 11:20 pm)
Average temperature yesterday: 59 °F

High & Low Weather Summary for the Past Weeks

 TemperatureHumidityPressure
High84 °F (Nov 20, 12:50 pm)94% (Dec 2, 12:20 am)30.30 "Hg (Dec 2, 12:20 am)
Low39 °F (Nov 26, 4:20 am)4% (Nov 24, 2:20 pm)29.74 "Hg (Dec 1, 1:50 pm)
Average65 °F35%30.01 "Hg
* Reported Nov 19 12:20 pm — Dec 4 12:50 pm, Ashdod, Weather by CustomWeather, © 2016

Note: Actual official high and low records may vary slightly from our data, if they occured in-between our weather recording intervals... More about our weather records

Advertising

Ashdod Weather History for the Previous 24 Hours

Scroll right to see more
 ConditionsComfort  
Time TempWeatherWind HumidityBarometerVisibility
12:50 pm
Sun, Dec 4
72 °FSunny.8 mph33%30.18 "Hg10 mi
12:20 pm70 °FSunny.7 mph35%30.18 "Hg10 mi
11:50 am70 °FSunny.10 mph38%30.18 "Hg10 mi
11:20 am72 °FSunny.2 mph36%30.21 "Hg10 mi
10:50 am70 °FSunny.1 mph40%30.21 "Hg10 mi
10:20 am68 °FSunny.1 mph43%30.21 "Hg10 mi
9:50 am64 °FSunny.2 mph49%30.24 "Hg10 mi
9:20 am63 °FSunny.1 mph56%30.24 "Hg10 mi
8:50 am61 °FSunny.1 mph63%30.24 "Hg10 mi
8:20 am57 °FSunny.No wind72%30.24 "Hg10 mi
7:50 am54 °FSunny.2 mph82%30.24 "Hg10 mi
7:20 am52 °FSunny.3 mph88%30.24 "Hg10 mi
6:50 am50 °FSunny.3 mph88%30.24 "Hg10 mi
6:20 am52 °FClear.5 mph88%30.24 "Hg10 mi
5:50 am52 °FClear.3 mph88%30.24 "Hg10 mi
5:20 am52 °FClear.5 mph88%30.21 "Hg10 mi
4:50 am54 °FClear.3 mph82%30.21 "Hg10 mi
4:20 am54 °FClear.3 mph82%30.21 "Hg10 mi
3:50 am52 °FClear.2 mph88%30.21 "Hg10 mi
3:20 am52 °FClear.3 mph94%30.21 "Hg10 mi
2:50 am52 °FClear.1 mph94%30.21 "Hg10 mi
2:20 am52 °FClear.1 mph94%30.21 "Hg10 mi
1:50 am54 °FClear.1 mph88%30.21 "Hg10 mi
1:20 am54 °FClear.2 mph88%30.24 "Hg10 mi
12:50 am55 °FClear.2 mph88%30.24 "Hg10 mi
12:20 am54 °FClear.2 mph94%30.24 "Hg10 mi
11:50 pm
Sat, Dec 3
54 °FClear.2 mph94%30.24 "Hg10 mi
11:20 pm54 °FClear.2 mph94%30.24 "Hg10 mi
10:50 pm55 °FClear.1 mph88%30.24 "Hg10 mi
10:20 pm55 °FClear.1 mph88%30.24 "Hg10 mi
9:50 pm55 °FClear.1 mph88%30.24 "Hg10 mi
9:20 pm57 °FClear.3 mph82%30.24 "Hg10 mi
8:50 pm57 °FPassing clouds.5 mph88%30.24 "HgN/A
8:20 pm61 °FPassing clouds.6 mph72%30.27 "HgN/A
7:50 pm61 °FPassing clouds.3 mph77%30.27 "HgN/A
7:20 pm61 °FPassing clouds.3 mph77%30.27 "HgN/A
6:50 pm61 °FPassing clouds.5 mph77%30.27 "HgN/A
6:20 pm61 °FPassing clouds.3 mph83%30.27 "HgN/A
5:50 pm61 °FPassing clouds.5 mph77%30.27 "HgN/A
5:20 pm63 °FPassing clouds.3 mph73%30.24 "HgN/A
4:50 pm64 °FPassing clouds.3 mph60%30.24 "HgN/A
4:20 pm66 °FPassing clouds.3 mph60%30.24 "HgN/A
3:50 pm66 °FPassing clouds.2 mph56%30.24 "HgN/A
3:20 pm66 °FPassing clouds.2 mph56%30.24 "HgN/A
2:50 pm66 °FScattered clouds.3 mph56%30.24 "Hg6 mi
2:20 pm66 °FScattered clouds.1 mph56%30.24 "Hg6 mi
Weather by CustomWeather, © 2016

See weather overviewHow to use our weather pages